Location: Auckland
(36.8670°S, 174.7670°E)
Time: 12:23:31
(UTC+12:00)

A-11 Canister half - Pass Details

Date: 25 July 2019
Orbit: 1526 x 1683 km, 47.3° (Epoch: 21 August)

Event Time Altitude Azimuth Distance (km) Brightness Sun altitude
Rises 10:03:27 0° 267° (W) 4,706 11.2 24.0°
Reaches altitude 10° 10:06:40 10° 261° (W) 3,739 10.7 24.3°
Maximum altitude 10:15:44 47° 188° (S) 2,012 9.6 25.4°
Drops below altitude 10° 10:25:06 10° 116° (ESE) 3,856 11.3 26.4°
Sets 10:28:29 0° 110° (ESE) 4,864 11.8 26.8°
